Find Starlink 35493

NORAD ID: 65928 Int'l Des: 2025-225 Owner: SPXS Country: US Constellation: starlink operational
LEOCIRCULAR

現在のビュー

3D地球を読み込み中...

About Starlink 35493

Starlink 35493 (NORAD 65928) is a starlink constellation satellite (v2 mini) launched Oct 8, 2025 by SPXS of US. It operates in LEO, CIRCULAR orbit with a mass of 575.00 kg.

次回通過

Passes for default location (London). Set your location on the main map for personalized predictions.

高度履歴

Loading altitude history...

軌道要素

1 65928U 25225U 26265.42591193 .00024075 00000-0 72123-3 0 9997
2 65928 53.1612 328.7154 0001336 65.5631 294.5511 15.34406134 54578
Epoch: Sep 22, 2026 • Age: 18 hours

現在のステータス

高度 467.6 km
遠地点 / 近地点 N/A
速度 7.64 km/s
衛星直下点 50.59°N, 27.78°W
打ち上げ日 Oct 8, 2025
運用期間 0.9 years
タイプ internet

技術仕様

分類 Payload
質量 575.00 kg
乾燥質量 530.00 kg
長さ 0.30 m
スパン 29.00 m
形状 ? Box + pan
製造者 SPXS
バスタイプ Starlink V2MO
フェーズステータス In Orbit
所有者/国 SPXS/US

Most Searched